Location: Aboncourt
(47.7710°N, 5.9826°E)
Time: 03:28:56
(UTC+00:00)

Cosmos 1844 Rocket - Pass Details

Date: 05 July 2020
Orbit: 826 x 843 km, 71.0° (Epoch: 03 August)

Event Time Altitude Azimuth Distance (km) Brightness Sun altitude
Rises 21:05:32 0° 328° (NNW) 3,377 8.0 -11.4°
Reaches altitude 10° 21:08:03 10° 323° (NW) 2,438 6.7 -11.6°
Maximum altitude 21:13:22 47° 251° (WSW) 1,082 3.4 -12.2°
Enters shadow 21:18:18 12° 180° (S) 2,293 4.5 -12.6°
